| time (UTC) | temp F | wind direction | speed MPH | gust MPH | rain 1hr in | rain 24hr in | rain mn in | humidity % | barometer mb |
| 20260906040010 | 73 | 333 | 3.0 | 4.0 | 0.00 | 0.00 | 0.00 | 58 | 1021.8 |
| 20260906035011 | 74 | 330 | 3.0 | 4.0 | 0.00 | 0.00 | 0.00 | 58 | 1021.9 |
| 20260906034010 | 74 | 342 | 3.0 | 5.0 | 0.00 | 0.00 | 0.00 | 56 | 1021.9 |
| 20260906032010 | 73 | 335 | 3.0 | 4.0 | 0.00 | 0.00 | 0.00 | 58 | 1022.0 |
| 20260906031011 | 74 | 348 | 3.0 | 4.0 | 0.00 | 0.00 | 0.00 | 59 | 1022.1 |
| 20260906030011 | 73 | 349 | 2.0 | 4.0 | 0.00 | 0.00 | 0.00 | 59 | 1022.1 |
| 20260906024009 | 73 | 348 | 3.0 | 4.0 | 0.00 | 0.00 | 0.00 | 60 | 1022.0 |
| 20260906021010 | 72 | 349 | 2.0 | 4.0 | 0.00 | 0.00 | 0.00 | 65 | 1022.3 |
| 20260906020011 | 72 | 348 | 2.0 | 4.0 | 0.00 | 0.00 | 0.00 | 66 | 1022.3 |
| 20260906015010 | 72 | 349 | 2.0 | 4.0 | 0.00 | 0.00 | 0.00 | 67 | 1022.3 |
| 20260906014009 | 72 | 348 | 2.0 | 4.0 | 0.00 | 0.00 | 0.00 | 70 | 1022.4 |
| 20260906013011 | 72 | 348 | 3.0 | 5.0 | 0.00 | 0.00 | 0.00 | 73 | 1022.5 |
| 20260906012012 | 71 | 349 | 3.0 | 4.0 | 0.00 | 0.00 | 0.00 | 74 | 1022.4 |
| 20260906011009 | 71 | 349 | 3.0 | 4.0 | 0.00 | 0.00 | 0.00 | 76 | 1022.5 |
| 20260906005021 | 71 | 349 | 1.0 | 3.0 | 0.00 | 0.00 | 0.00 | 79 | 1022.6 |
| 20260906004022 | 72 | 349 | 1.0 | 2.0 | 0.00 | 0.00 | 0.00 | 80 | 1022.6 |
| 20260906002021 | 73 | 349 | 2.0 | 3.0 | 0.00 | 0.00 | 0.00 | 80 | 1022.6 |
| 20260906001020 | 73 | 348 | 2.0 | 3.0 | 0.00 | 0.00 | 0.00 | 79 | 1022.8 |
| 20260906000021 | 73 | 349 | 2.0 | 4.0 | 0.00 | 0.00 | 0.00 | 79 | 1022.8 |
| 20260905235021 | 73 | 349 | 1.0 | 3.0 | 0.00 | 0.00 | 0.00 | 78 | 1022.9 |
| 20260905233022 | 73 | 349 | 2.0 | 4.0 | 0.00 | 0.00 | 0.00 | 72 | 1022.9 |
| 20260905232020 | 73 | 348 | 3.0 | 4.0 | 0.00 | 0.00 | 0.00 | 70 | 1022.8 |
| 20260905231021 | 73 | 348 | 3.0 | 4.0 | 0.00 | 0.00 | 0.00 | 71 | 1022.9 |
| 20260905230024 | 73 | 348 | 2.0 | 4.0 | 0.00 | 0.00 | 0.00 | 72 | 1022.9 |
| 20260905225022 | 73 | 348 | 2.0 | 5.0 | 0.00 | 0.00 | 0.00 | 73 | 1022.9 |
| 20260905224025 | 74 | 349 | 2.0 | 4.0 | 0.00 | 0.00 | 0.00 | 70 | 1022.8 |
| 20260905223025 | 74 | 349 | 1.0 | 3.0 | 0.00 | 0.00 | 0.00 | 74 | 1023.0 |
| 20260905222024 | 74 | 349 | 2.0 | 4.0 | 0.00 | 0.00 | 0.00 | 71 | 1022.7 |
| 20260905220023 | 74 | 349 | 2.0 | 3.0 | 0.00 | 0.00 | 0.00 | 72 | 1022.9 |
| 20260905215024 | 74 | 348 | 1.0 | 3.0 | 0.00 | 0.00 | 0.00 | 72 | 1022.9 |
| 20260905214021 | 73 | 348 | 2.0 | 4.0 | 0.00 | 0.00 | 0.00 | 73 | 1022.7 |
| 20260905213022 | 73 | 349 | 3.0 | 5.0 | 0.00 | 0.00 | 0.00 | 76 | 1022.8 |
| 20260905212021 | 73 | 348 | 2.0 | 3.0 | 0.00 | 0.00 | 0.00 | 77 | 1022.8 |
| 20260905211022 | 74 | 349 | 1.0 | 2.0 | 0.00 | 0.00 | 0.00 | 77 | 1022.9 |
| 20260905210026 | 74 | 349 | 1.0 | 3.0 | 0.00 | 0.00 | 0.00 | 75 | 1023.0 |
| 20260905205026 | 73 | 348 | 2.0 | 4.0 | 0.00 | 0.00 | 0.00 | 73 | 1023.0 |
| 20260905204022 | 73 | 349 | 2.0 | 4.0 | 0.00 | 0.00 | 0.00 | 76 | 1023.1 |
| 20260905203020 | 73 | 251 | 3.0 | 4.0 | 0.00 | 0.00 | 0.00 | 78 | 1023.1 |
| 20260905202024 | 75 | 225 | 1.0 | 3.0 | 0.00 | 0.00 | 0.00 | 86 | 1023.2 |
| 20260905201022 | 75 | 225 | 1.0 | 3.0 | 0.00 | 0.00 | 0.00 | 87 | 1023.1 |
| 20260905200026 | 75 | 225 | 1.0 | 3.0 | 0.00 | 0.00 | 0.00 | 86 | 1023.1 |
| 20260905195020 | 76 | 225 | 1.0 | 3.0 | 0.00 | 0.00 | 0.00 | 87 | 1023.1 |
| 20260905194021 | 77 | 209 | 3.0 | 6.0 | 0.00 | 0.00 | 0.00 | 87 | 1022.9 |
| 20260905193020 | 78 | 202 | 2.0 | 6.0 | 0.00 | 0.00 | 0.00 | 86 | 1022.8 |
| 20260905192022 | 78 | 218 | 2.0 | 3.0 | 0.00 | 0.00 | 0.00 | 85 | 1022.7 |
| 20260905191021 | 78 | 265 | 2.0 | 6.0 | 0.00 | 0.00 | 0.00 | 85 | 1022.5 |
| 20260905185020 | 79 | 246 | 3.0 | 6.0 | 0.00 | 0.00 | 0.00 | 84 | 1022.3 |
| 20260905184022 | 79 | 236 | 3.0 | 5.0 | 0.00 | 0.00 | 0.00 | 83 | 1022.4 |
| 20260905183021 | 79 | 223 | 3.0 | 5.0 | 0.00 | 0.00 | 0.00 | 82 | 1022.1 |
| 20260905182021 | 80 | 233 | 4.0 | 7.0 | 0.00 | 0.00 | 0.00 | 82 | 1022.2 |
| 20260905180025 | 81 | 238 | 3.0 | 7.0 | 0.00 | 0.00 | 0.00 | 80 | 1022.3 |
| 20260905175022 | 82 | 236 | 3.0 | 6.0 | 0.00 | 0.00 | 0.00 | 80 | 1022.4 |
| 20260905174023 | 82 | 219 | 3.0 | 5.0 | 0.00 | 0.00 | 0.00 | 79 | 1022.3 |
| 20260905173023 | 83 | 221 | 3.0 | 5.0 | 0.00 | 0.00 | 0.00 | 79 | 1022.3 |
| 20260905172021 | 83 | 219 | 4.0 | 7.0 | 0.00 | 0.00 | 0.00 | 78 | 1022.3 |
| 20260905170022 | 85 | 216 | 5.0 | 8.0 | 0.00 | 0.00 | 0.00 | 75 | 1022.2 |
| 20260905165021 | 85 | 199 | 5.0 | 11.0 | 0.00 | 0.00 | 0.00 | 73 | 1022.2 |
| 20260905164021 | 86 | 200 | 5.0 | 9.0 | 0.00 | 0.00 | 0.00 | 71 | 1022.3 |
| 20260905163020 | 86 | 211 | 5.0 | 9.0 | 0.00 | 0.00 | 0.00 | 70 | 1022.4 |
| 20260905162020 | 86 | 210 | 5.0 | 10.0 | 0.00 | 0.00 | 0.00 | 70 | 1022.5 |
| 20260905161022 | 86 | 213 | 5.0 | 10.0 | 0.00 | 0.00 | 0.00 | 71 | 1022.4 |
| 20260905160022 | 86 | 211 | 5.0 | 9.0 | 0.00 | 0.00 | 0.00 | 71 | 1022.5 |
| 20260905155022 | 86 | 215 | 5.0 | 11.0 | 0.00 | 0.00 | 0.00 | 72 | 1022.4 |
| 20260905154022 | 87 | 215 | 5.0 | 10.0 | 0.00 | 0.00 | 0.00 | 71 | 1022.4 |
| 20260905153020 | 87 | 209 | 6.0 | 10.0 | 0.00 | 0.00 | 0.00 | 71 | 1022.5 |
| 20260905152021 | 87 | 192 | 5.0 | 12.0 | 0.00 | 0.00 | 0.00 | 71 | 1022.5 |
| 20260905151020 | 87 | 220 | 5.0 | 10.0 | 0.00 | 0.00 | 0.00 | 68 | 1022.5 |
| 20260905150021 | 87 | 209 | 5.0 | 12.0 | 0.00 | 0.00 | 0.00 | 72 | 1022.5 |
| 20260905145021 | 86 | 202 | 5.0 | 12.0 | 0.00 | 0.00 | 0.00 | 73 | 1022.7 |
| 20260905144021 | 87 | 207 | 5.0 | 11.0 | 0.00 | 0.00 | 0.00 | 73 | 1022.7 |
| 20260905143021 | 86 | 214 | 4.0 | 10.0 | 0.00 | 0.00 | 0.00 | 73 | 1022.8 |
| 20260905142024 | 87 | 203 | 5.0 | 10.0 | 0.00 | 0.00 | 0.00 | 72 | 1022.8 |
| 20260905140022 | 86 | 203 | 6.0 | 11.0 | 0.00 | 0.00 | 0.00 | 74 | 1022.9 |
| 20260905135020 | 86 | 205 | 6.0 | 12.0 | 0.00 | 0.00 | 0.00 | 73 | 1022.9 |
| 20260905134021 | 87 | 196 | 7.0 | 13.0 | 0.00 | 0.00 | 0.00 | 74 | 1023.1 |
| 20260905133021 | 87 | 189 | 6.0 | 14.0 | 0.00 | 0.00 | 0.00 | 74 | 1023.3 |
| 20260905132020 | 87 | 192 | 6.0 | 10.0 | 0.00 | 0.00 | 0.00 | 72 | 1023.2 |
| 20260905131021 | 87 | 193 | 5.0 | 10.0 | 0.00 | 0.00 | 0.00 | 72 | 1023.1 |
| 20260905130023 | 88 | 194 | 5.0 | 10.0 | 0.00 | 0.00 | 0.00 | 71 | 1023.1 |
| 20260905125021 | 87 | 186 | 6.0 | 10.0 | 0.00 | 0.00 | 0.00 | 72 | 1023.1 |
| 20260905124020 | 88 | 200 | 5.0 | 10.0 | 0.00 | 0.00 | 0.00 | 73 | 1023.1 |
| 20260905123020 | 87 | 194 | 5.0 | 10.0 | 0.00 | 0.00 | 0.00 | 72 | 1023.1 |
| 20260905122021 | 88 | 188 | 5.0 | 10.0 | 0.00 | 0.00 | 0.00 | 73 | 1023.2 |
| 20260905121019 | 88 | 171 | 6.0 | 12.0 | 0.00 | 0.00 | 0.00 | 73 | 1023.1 |
| 20260905120020 | 88 | 165 | 6.0 | 11.0 | 0.00 | 0.00 | 0.00 | 70 | 1023.2 |
| 20260905114022 | 88 | 164 | 5.0 | 10.0 | 0.00 | 0.00 | 0.00 | 70 | 1023.2 |
| 20260905112019 | 86 | 214 | 4.0 | 8.0 | 0.00 | 0.00 | 0.00 | 71 | 1023.1 |
| 20260905111020 | 87 | 193 | 4.0 | 9.0 | 0.00 | 0.00 | 0.00 | 71 | 1023.1 |
| 20260905110022 | 86 | 200 | 5.0 | 9.0 | 0.00 | 0.00 | 0.00 | 73 | 1023.3 |
| 20260905105022 | 86 | 195 | 4.0 | 8.0 | 0.00 | 0.00 | 0.00 | 71 | 1023.3 |
| 20260905104021 | 87 | 178 | 3.0 | 9.0 | 0.00 | 0.00 | 0.00 | 71 | 1023.5 |
| 20260905101021 | 87 | 169 | 3.0 | 7.0 | 0.00 | 0.00 | 0.00 | 68 | 1023.3 |
| 20260905100020 | 87 | 158 | 3.0 | 8.0 | 0.00 | 0.00 | 0.00 | 68 | 1023.4 |
| 20260905095019 | 86 | 118 | 3.0 | 6.0 | 0.00 | 0.00 | 0.00 | 67 | 1023.2 |
| 20260905094020 | 86 | 137 | 3.0 | 7.0 | 0.00 | 0.00 | 0.00 | 68 | 1023.2 |
| 20260905093020 | 85 | 156 | 2.0 | 7.0 | 0.00 | 0.00 | 0.00 | 70 | 1023.2 |
| 20260905092019 | 84 | 142 | 3.0 | 8.0 | 0.00 | 0.00 | 0.00 | 71 | 1023.2 |
| 20260905091019 | 84 | 145 | 3.0 | 7.0 | 0.00 | 0.00 | 0.00 | 71 | 1023.2 |
| 20260905090024 | 84 | 177 | 2.0 | 6.0 | 0.00 | 0.00 | 0.00 | 72 | 1023.1 |
| 20260905085020 | 83 | 177 | 2.0 | 5.0 | 0.00 | 0.00 | 0.00 | 73 | 1023.1 |
| 20260905084019 | 82 | 172 | 2.0 | 6.0 | 0.00 | 0.00 | 0.00 | 75 | 1023.1 |
| 20260905083021 | 80 | 177 | 1.0 | 4.0 | 0.00 | 0.00 | 0.00 | 77 | 1023.0 |
| 20260905082022 | 79 | 190 | 2.0 | 5.0 | 0.00 | 0.00 | 0.00 | 80 | 1022.9 |
| 20260905081021 | 78 | 198 | 2.0 | 5.0 | 0.00 | 0.00 | 0.00 | 83 | 1022.9 |
| 20260905075022 | 77 | 217 | 2.0 | 5.0 | 0.00 | 0.00 | 0.00 | 86 | 1022.9 |
| 20260905074020 | 76 | 218 | 2.0 | 4.0 | 0.00 | 0.00 | 0.00 | 87 | 1023.0 |
| 20260905072020 | 76 | 217 | 1.0 | 5.0 | 0.00 | 0.00 | 0.00 | 86 | 1022.8 |
| 20260905071019 | 76 | 300 | 2.0 | 4.0 | 0.00 | 0.00 | 0.00 | 85 | 1022.8 |
| 20260905070020 | 76 | 330 | 1.0 | 3.0 | 0.00 | 0.00 | 0.00 | 83 | 1022.7 |
| 20260905065019 | 76 | 0 | 0.0 | 0.0 | 0.00 | 0.00 | 0.00 | 83 | 1022.5 |
| 20260905064019 | 74 | 0 | 0.0 | 0.0 | 0.00 | 0.00 | 0.00 | 81 | 1022.3 |
| 20260905063021 | 74 | 330 | 0.0 | 2.0 | 0.00 | 0.00 | 0.00 | 80 | 1022.2 |
| 20260905062019 | 73 | 331 | 0.0 | 1.0 | 0.00 | 0.00 | 0.00 | 79 | 1022.1 |
| 20260905061019 | 72 | 330 | 1.0 | 3.0 | 0.00 | 0.00 | 0.00 | 78 | 1022.0 |
| 20260905060019 | 72 | 330 | 2.0 | 3.0 | 0.00 | 0.00 | 0.00 | 76 | 1021.9 |
| 20260905055020 | 71 | 331 | 2.0 | 3.0 | 0.00 | 0.00 | 0.00 | 75 | 1021.8 |
| 20260905054019 | 71 | 330 | 2.0 | 4.0 | 0.00 | 0.00 | 0.00 | 77 | 1021.6 |
| 20260905053020 | 71 | 331 | 3.0 | 4.0 | 0.00 | 0.00 | 0.00 | 78 | 1021.5 |
| 20260905052020 | 71 | 330 | 3.0 | 4.0 | 0.00 | 0.00 | 0.00 | 78 | 1021.4 |
| 20260905051020 | 70 | 331 | 3.0 | 4.0 | 0.00 | 0.00 | 0.00 | 79 | 1021.3 |
| 20260905050022 | 70 | 331 | 2.0 | 4.0 | 0.00 | 0.00 | 0.00 | 79 | 1021.2 |
| 20260905045019 | 70 | 331 | 3.0 | 5.0 | 0.00 | 0.00 | 0.00 | 79 | 1021.0 |
| 20260905043019 | 71 | 330 | 2.0 | 4.0 | 0.00 | 0.00 | 0.00 | 75 | 1021.2 |
| 20260905042019 | 71 | 303 | 3.0 | 6.0 | 0.00 | 0.00 | 0.00 | 77 | 1021.1 |
| 20260905041021 | 70 | 292 | 2.0 | 4.0 | 0.00 | 0.00 | 0.00 | 78 | 1021.1 |